sat.trackr.live / text

‹ back to catalog

STARLINK-5483

NORAD 55643 · 2023-021R

PAYLOAD ACTIVE UNKNOWN

§ Identity

Operator
Country
US
Launch date
2023-02-17
Launch site
AFWTR
Launch vehicle
Mass (kg)
RCS (m²)

Purposes: comms

External: N2YO · Heavens-Above · Gunter

§ Orbital elements

Epoch: 2026-05-25T01:00:54.028800Z

Period
96.11 min
Inclination
69.9998°
Eccentricity
0.0002850
Mean motion
14.98328883 rev/d
Perigee alt
570.1 km
Apogee alt
574.0 km
Semi-major
6,950.2 km
B*
-1.4300e-5
RAAN
352.1257°
Arg perigee
268.6130°
Mean anomaly
91.4703°
Rev number
18,022

§ Raw data

STARLINK-54831 55643U 23021R   26145.04229200 -.00000264  00000+0 -14300-4 0  99932 55643  69.9998 352.1257 0002850 268.6130  91.4703 14.98328883180222

JSON: /api/v1/satellites/55643 · /tle

For live sub-satellite position, see the globe view (requires WebGL).

§ Visibility from observer

Set your observer location to see the next 7 days of passes ≥ 10°. The values pass through the URL so the page stays shareable.

No JS? Fill the form by hand. The geolocation button needs JavaScript.